Temperature
14 15 15 15 15 15 15 15 15 15 14 14 14 14 14 14 14 14 14 14 14 14 14 14 14 13 13 13 13 13 12 12 12 12 12 12 12 12 12 12 12 12 12
14 14 15 15 15 15 15 15 15 14 14 14 14 14 14 14 14 14 14 14 14 14 14 14 14 13 13 13 13 12 12 12 12 12 12 12 12 12 11 11 11 11 11
14 14 14 15 15 15 15 15 14 14 14 14 14 14 14 14 14 14 14 14 14 14 14 14 13 13 13 13 13 12 12 12 12 11 11 11 11 11 11 11 11 11 11
14 14 14 15 15 15 15 15 14 14 14 14 14 14 14 14 14 14 14 14 14 14 14 14 13 13 13 13 12 12 12 12 11 11 11 11 11 11 11 11 11 11 11
14 14 14 15 15 15 15 15 14 14 14 14 14 14 14 14 14 14 14 14 14 14 13 13 13 13 13 12 12 12 11 11 11 11 11 11 11 11 10 10 10 10 10
14 14 14 14 14 15 15 15 14 14 14 14 13 13 14 14 14 14 14 14 14 13 13 13 13 13 12 12 11 11 11 11 11 10 10 10 10 10 10 10 10 10 10
14 14 14 14 14 15 15 14 14 14 13 13 13 13 13 13 14 14 14 13 13 13 13 13 12 12 12 11 11 11 11 11 10 10 10 10 10 10 10 9 9 10 10
14 14 14 14 14 14 14 14 14 13 13 13 13 13 13 13 13 13 13 13 13 13 12 12 12 12 11 11 11 11 10 10 10 10 10 9 9 9 9 9 9 9 9
14 14 14 14 14 14 14 14 13 13 13 13 13 13 13 13 13 13 13 13 13 12 12 12 11 11 11 10 10 10 10 10 10 9 9 9 9 9 9 9 9 9 9
14 14 14 14 14 14 14 14 13 13 13 13 13 13 13 13 13 12 12 12 12 12 11 11 11 11 10 10 10 10 9 9 9 9 9 9 8 8 8 8 8 8 8
13 13 14 14 14 13 13 13 13 13 13 13 13 13 13 13 13 12 12 12 11 11 11 10 10 10 10 10 9 9 9 9 8 8 8 8 8 8 8 8 8 8 8
13 13 13 13 13 13 13 13 13 13 13 12 12 12 12 12 12 12 12 11 11 10 10 10 10 10 9 9 9 8 8 8 8 7 7 7 7 7 7 7 7 7 7
13 13 13 13 13 13 13 13 13 13 13 12 12 12 12 12 12 12 11 11 10 10 10 10 9 9 9 8 8 8 7 7 7 7 7 6 7 7 7 7 7 7 7
13 13 13 12 13 12 13 13 12 12 12 12 12 12 12 12 12 11 11 11 10 9 9 9 8 8 8 8 7 7 6 6 6 6 6 6 6 6 6 6 6 6 6
12 12 12 12 12 12 12 12 12 12 12 12 12 11 11 11 11 11 11 10 10 9 8 8 7 7 7 7 6 6 6 5 5 5 5 5 5 5 5 5 5 5 6
12 12 12 12 12 12 12 11 11 11 11 11 11 11 11 11 11 11 10 10 9 8 7 7 7 7 6 6 5 5 5 5 4 4 4 4 4 5 5 5 5 5 5
11 11 11 11 11 11 11 11 11 11 11 10 10 10 10 10 10 10 10 9 9 8 7 7 6 6 6 5 5 5 4 4 4 4 4 4 4 4 4 4 4 4 4
11 11 11 11 11 10 10 10 10 10 10 10 10 10 10 10 10 9 9 9 8 7 7 6 6 5 5 4 4 4 4 3 3 3 3 3 3 3 3 3 4 4 4
10 10 10 10 10 10 10 10 9 9 9 9 9 9 9 9 9 9 8 8 7 7 6 5 5 4 4 4 3 3 3 3 3 3 3 3 3 3 3 3 3 3 3
9 9 9 9 9 9 9 9 9 9 9 9 9 9 9 8 8 8 8 7 7 6 5 4 4 3 3 3 3 3 3 3 3 3 3 2 2 3 3 3 3 3 3
9 9 8 8 8 8 8 8 8 8 8 8 8 8 8 8 8 7 7 7 6 5 4 4 3 3 3 3 3 2 2 2 2 2 2 2 2 2 2 2 2 2 2
8 8 8 8 8 8 7 7 7 7 7 7 7 7 7 7 7 6 6 6 5 5 4 3 3 3 2 2 2 2 2 2 2 2 2 2 2 2 2 2 2 2 2
7 7 7 7 7 7 7 7 7 7 7 7 7 7 7 6 6 6 6 5 4 4 3 3 3 2 2 2 2 1 1 2 1 2 1 2 2 1 1 1 1 1 1
6 6 6 6 6 6 6 6 6 6 6 6 6 6 6 6 6 5 5 4 4 3 3 3 2 2 2 2 1 1 1 1 1 1 1 1 1 1 1 1 1 1 1
5 5 5 5 5 5 5 5 5 5 5 5 5 5 5 5 5 4 4 3 3 3 2 2 2 2 1 1 1 1 1 0 0 1 1 0 1 1 1 1 1 1 1
4 4 4 4 4 4 4 4 4 4 5 5 5 5 4 4 4 3 3 3 3 2 2 2 1 1 1 1 1 0 0 0 0 0 0 0 0 0 0 1 0 0 0
Wind_Speed
8 8 9 11 11 11 10 8 8 8 6 6 7 4 4 6 5 6 8 10 8 6 5 5 5 5 5 5 5 5 4 5 6 5 5 4 4 4 4 3 3 2 2
8 7 7 7 8 10 11 9 7 4 4 3 3 3 4 4 3 4 7 9 9 7 6 5 5 5 6 6 5 4 4 4 4 5 5 4 4 4 4 4 4 3 3
10 7 7 6 6 10 10 7 5 4 2 2 2 3 2 2 1 1 3 7 8 7 7 6 5 5 5 5 4 4 3 2 2 3 4 4 5 6 6 6 5 5 4
13 7 6 6 8 8 6 3 3 3 2 3 2 3 1 1 1 2 0 4 5 4 5 5 4 3 3 3 3 3 2 1 2 2 3 4 5 5 6 6 6 6 6
13 8 5 5 8 5 4 4 3 3 3 3 3 2 2 2 2 1 0 2 4 4 2 4 4 2 2 2 2 1 1 2 2 3 3 4 4 5 6 6 7 7 6
13 9 5 6 7 5 4 4 4 3 2 3 2 1 2 3 2 2 1 2 4 4 3 3 3 2 2 1 0 1 1 2 2 2 3 3 4 5 5 6 6 7 7
11 8 6 6 6 6 6 6 4 4 3 2 1 1 3 3 3 3 2 2 3 4 3 3 4 4 4 2 2 2 2 3 3 2 3 3 3 4 5 5 6 6 6
10 8 7 6 6 6 6 6 5 4 3 3 3 2 2 1 2 3 3 3 2 4 4 4 5 5 4 4 4 5 4 4 4 3 3 3 3 4 5 6 7 7 6
8 7 7 6 6 6 5 5 5 5 4 3 3 3 3 3 1 1 3 3 3 3 2 4 4 4 5 6 6 6 6 6 5 4 4 4 4 5 5 6 7 7 6
8 8 7 6 6 5 5 5 4 4 5 3 2 2 2 1 2 1 1 2 3 3 3 3 4 4 5 6 6 7 7 6 5 5 4 4 4 5 6 6 7 7 6
6 7 7 6 6 5 6 6 5 5 4 4 3 2 2 1 1 2 2 2 1 2 3 3 3 4 5 6 6 6 7 6 6 6 5 5 5 6 7 7 8 8 7
5 6 6 6 6 6 6 6 6 6 5 4 4 3 3 2 3 3 4 3 2 1 2 2 3 4 5 6 5 5 6 6 6 6 6 7 8 8 8 8 8 9 8
4 6 5 6 6 6 6 5 6 6 6 6 5 4 3 3 2 2 2 2 2 1 1 2 3 6 5 5 5 4 5 5 6 6 6 7 7 8 8 8 9 10 9
4 5 6 6 6 7 6 6 5 5 5 5 6 5 3 3 3 3 3 3 2 2 2 3 2 5 6 5 3 3 4 5 6 6 7 7 8 8 8 9 9 9 9
4 5 6 6 5 6 6 6 5 6 5 5 5 5 4 3 3 2 2 3 4 3 3 2 2 3 6 5 3 3 4 3 4 5 6 7 7 7 8 9 9 9 9
5 6 5 6 6 5 6 6 5 6 6 6 5 6 5 3 3 3 2 2 2 4 3 1 2 3 4 5 4 4 3 3 3 5 5 5 6 6 8 8 8 8 9
4 5 5 6 6 6 6 6 6 6 7 6 6 6 6 5 4 4 3 2 2 3 3 1 1 2 3 3 3 3 2 2 3 4 4 4 4 5 6 7 8 8 9
3 4 4 4 5 5 6 7 7 7 7 8 7 7 6 5 6 5 4 4 3 3 3 3 1 1 2 2 3 2 1 1 2 3 2 2 3 4 5 6 8 9 9
3 3 4 5 5 5 6 6 6 7 7 7 7 7 6 7 6 4 5 4 3 3 2 2 2 1 1 2 2 1 1 0 1 2 2 1 2 3 4 5 7 8 9
3 3 3 4 5 5 5 5 5 5 5 5 5 6 6 7 7 7 5 5 4 4 3 3 3 2 2 2 2 2 2 2 1 1 1 1 1 2 3 4 6 7 8
2 3 3 3 4 4 4 5 5 5 6 5 5 5 5 6 7 7 6 6 6 5 4 4 4 3 3 3 3 3 3 2 2 1 1 1 1 1 2 3 5 6 7
1 2 3 4 4 3 6 7 6 5 6 6 6 5 5 6 7 8 7 7 7 6 6 5 4 4 5 4 3 3 3 2 2 2 2 1 2 1 1 2 3 5 6
1 2 3 3 4 5 8 8 8 5 5 6 6 6 5 6 7 6 7 7 5 5 6 5 5 5 4 5 5 4 4 3 3 3 3 2 1 1 2 2 2 3 5
1 2 3 3 3 5 9 9 9 5 5 6 6 7 7 7 7 8 6 6 5 4 4 3 3 3 3 4 6 6 5 3 2 1 2 2 2 2 2 2 1 1 3
2 2 3 3 4 5 9 10 10 5 5 6 6 7 8 8 11 13 8 7 6 4 4 4 4 5 5 5 6 5 5 3 2 2 2 2 2 1 1 1 2 1 1
3 3 3 4 5 5 9 11 11 5 6 6 6 7 11 11 13 15 9 8 8 6 6 5 3 3 3 4 6 5 6 4 3 3 3 3 2 2 1 1 1 1 1
Wind_Direction
154 155 163 168 175 182 174 181 207 203 200 191 202 203 186 209 214 166 167 178 189 204 223 245 259 270 277 282 279 277 272 260 253 253 255 262 278 290 292 301 319 327 350
158 156 160 166 176 176 171 187 205 184 186 181 189 211 227 222 212 176 166 182 192 203 214 228 252 268 276 280 280 284 278 279 260 252 253 259 272 283 284 286 291 295 291
157 156 156 161 168 166 168 185 201 165 162 161 191 222 229 264 274 232 172 168 184 201 213 224 242 262 274 278 281 286 275 277 266 268 267 267 272 275 274 273 276 278 277
158 156 150 160 162 160 162 166 167 149 163 170 203 216 197 215 274 282 185 145 149 161 201 212 221 247 270 272 277 284 276 272 256 273 278 280 282 284 281 277 272 270 265
159 154 150 158 158 150 152 164 164 163 176 191 205 195 212 210 210 219 112 123 120 117 132 175 193 215 244 238 270 282 300 310 274 266 276 287 294 290 288 284 278 270 267
159 156 150 158 152 146 154 159 167 175 173 175 183 210 231 222 185 155 135 116 116 111 102 117 144 161 179 163 112 41 351 326 305 276 280 289 295 296 295 294 292 279 269
159 157 155 159 153 156 164 167 169 176 180 154 136 264 267 230 183 163 147 116 120 124 105 89 91 85 85 88 76 47 10 351 332 311 298 301 306 313 308 310 304 296 280
158 159 157 159 158 160 169 177 174 168 177 166 162 176 252 276 246 176 148 136 134 118 108 90 74 69 64 73 70 49 22 358 350 338 331 322 315 313 312 313 315 305 295
158 159 161 159 161 164 175 179 174 170 183 195 183 173 188 219 211 208 181 160 157 137 124 107 88 72 64 66 56 40 22 7 349 333 330 326 327 324 321 328 331 327 314
160 161 163 161 160 162 170 172 166 167 171 188 199 205 195 163 158 198 236 192 168 159 147 122 100 80 72 72 65 47 26 12 1 348 343 344 347 342 336 334 335 334 333
161 164 167 164 167 170 174 170 165 165 175 182 183 185 206 229 217 177 215 219 214 191 145 126 111 94 80 75 69 46 33 25 17 8 3 7 13 7 1 356 350 344 334
164 168 170 168 172 175 181 179 174 174 180 181 186 185 179 181 205 200 214 216 211 200 141 123 117 105 93 88 75 51 39 32 22 14 19 29 24 15 12 4 359 352 343
170 176 171 170 173 180 182 175 175 182 180 178 192 195 194 191 166 180 191 207 199 198 164 155 134 121 109 101 84 52 47 40 31 24 27 32 32 28 19 8 0 355 351
171 170 172 178 180 178 175 174 177 185 179 184 191 188 188 186 173 174 176 174 197 237 219 195 111 125 122 111 92 58 64 54 48 44 44 50 43 33 25 15 6 359 355
158 163 172 176 180 176 174 172 184 184 175 181 184 183 183 175 167 163 162 164 172 204 232 184 143 132 128 121 106 80 84 67 68 66 64 56 43 33 25 17 9 5 2
167 169 176 181 182 179 178 179 183 182 177 180 178 178 180 172 158 151 158 159 161 176 210 177 138 137 127 126 118 99 99 98 97 93 75 60 49 40 29 21 17 16 9
159 170 176 181 184 181 178 183 186 180 182 181 179 181 181 163 159 158 153 160 175 172 207 224 93 115 128 132 122 112 110 116 117 104 88 73 62 46 33 25 21 18 12
162 168 168 177 180 177 178 183 185 185 186 186 186 177 176 165 163 162 160 172 186 184 188 209 181 148 142 143 136 133 124 128 131 128 111 92 73 53 36 30 24 18 15
153 159 167 179 182 181 184 185 183 183 184 183 179 176 175 169 174 170 169 176 181 179 177 187 184 152 143 136 131 143 175 234 177 155 140 109 76 56 39 35 29 20 17
146 158 173 178 177 176 178 176 173 173 172 169 166 169 174 177 180 175 176 179 174 176 179 190 190 179 178 162 163 191 210 207 216 180 186 181 128 79 53 43 34 23 18
145 157 165 172 173 171 176 172 168 170 170 163 158 161 165 166 169 174 177 178 175 179 185 196 197 184 190 186 203 193 198 187 209 189 183 230 155 72 47 36 35 25 22
144 164 179 178 180 184 178 179 174 172 172 172 171 165 159 158 170 176 173 173 174 182 190 191 195 202 208 201 184 181 168 164 227 209 169 220 163 147 92 66 39 31 30
197 198 198 192 194 189 186 187 186 175 176 177 176 173 176 180 175 169 176 176 180 189 187 180 194 206 200 190 172 177 183 185 205 180 147 205 182 178 158 110 58 39 38
238 228 220 213 207 202 195 193 189 180 179 183 183 182 183 179 181 174 173 174 178 182 184 181 184 188 175 166 169 174 175 146 99 126 143 182 191 183 149 137 123 70 51
254 242 232 222 220 216 205 199 190 182 191 196 193 190 187 187 193 189 179 177 178 187 178 160 152 152 150 155 154 136 143 146 180 214 189 165 167 145 143 187 184 174 105
254 246 245 234 228 227 215 209 199 195 200 201 200 201 201 198 199 194 183 180 190 194 171 163 162 165 161 166 163 162 167 165 163 197 197 159 151 130 168 261 200 202 183
Height
1519 1523 1527 1530 1534 1537 1540 1543 1546 1548 1550 1552 1553 1555 1556 1556 1557 1557 1557 1557 1557 1556 1555 1555 1555 1554 1554 1553 1552 1552 1551 1551 1551 1550 1550 1549 1548 1548 1547 1546 1545 1545 1544
1518 1521 1525 1529 1533 1536 1539 1542 1545 1548 1549 1551 1552 1553 1554 1555 1556 1556 1556 1555 1555 1554 1554 1553 1553 1552 1552 1551 1551 1550 1550 1549 1549 1548 1548 1547 1547 1546 1546 1545 1544 1544 1543
1516 1520 1524 1528 1531 1535 1538 1541 1544 1546 1548 1549 1550 1552 1553 1554 1554 1554 1554 1554 1553 1553 1552 1551 1551 1550 1550 1549 1549 1548 1548 1547 1547 1547 1546 1546 1545 1544 1544 1543 1543 1542 1542
1514 1518 1522 1526 1529 1533 1536 1539 1542 1544 1546 1547 1548 1550 1550 1551 1552 1552 1553 1552 1551 1551 1550 1549 1549 1548 1548 1547 1547 1546 1546 1545 1545 1544 1544 1544 1543 1542 1542 1541 1541 1540 1539
1512 1516 1520 1524 1527 1530 1534 1537 1539 1541 1543 1545 1546 1547 1548 1549 1549 1550 1550 1550 1549 1548 1548 1547 1547 1546 1546 1545 1545 1544 1544 1543 1543 1542 1542 1541 1540 1540 1539 1538 1538 1538 1537
1509 1514 1518 1521 1524 1528 1531 1534 1536 1539 1541 1542 1544 1545 1546 1546 1547 1547 1547 1547 1547 1546 1546 1545 1544 1544 1543 1543 1543 1542 1542 1541 1540 1540 1539 1539 1538 1537 1536 1536 1535 1535 1534
1506 1511 1515 1518 1522 1525 1528 1531 1533 1536 1538 1540 1541 1542 1543 1544 1544 1544 1544 1544 1544 1543 1543 1543 1542 1541 1541 1541 1540 1540 1539 1539 1538 1537 1537 1536 1535 1535 1534 1533 1532 1532 1532
1503 1508 1511 1515 1519 1522 1525 1528 1530 1532 1535 1537 1538 1540 1541 1542 1540 1541 1541 1541 1541 1541 1540 1540 1540 1539 1538 1538 1537 1537 1536 1536 1535 1535 1534 1533 1533 1532 1531 1530 1530 1529 1529
1500 1504 1508 1512 1515 1519 1521 1524 1527 1529 1531 1533 1535 1537 1538 1538 1538 1538 1538 1538 1538 1538 1537 1537 1537 1536 1535 1535 1534 1534 1533 1533 1532 1532 1531 1530 1529 1529 1528 1527 1527 1526 1525
1497 1501 1505 1508 1511 1515 1518 1520 1523 1525 1527 1529 1532 1533 1535 1535 1536 1535 1535 1535 1535 1535 1534 1534 1533 1533 1532 1531 1531 1530 1530 1529 1529 1528 1527 1526 1526 1525 1524 1524 1523 1522 1522
1493 1497 1501 1504 1507 1511 1514 1516 1519 1521 1523 1525 1527 1528 1530 1531 1532 1532 1532 1532 1532 1531 1531 1530 1530 1529 1528 1527 1527 1526 1526 1526 1525 1525 1524 1523 1522 1521 1521 1520 1520 1519 1518
1489 1493 1497 1500 1503 1506 1509 1511 1514 1516 1518 1520 1522 1524 1525 1526 1527 1528 1528 1528 1528 1528 1527 1526 1526 1525 1524 1523 1523 1522 1522 1522 1521 1521 1520 1519 1518 1517 1517 1516 1516 1515 1514
1485 1488 1492 1495 1498 1501 1503 1506 1508 1511 1513 1515 1517 1518 1520 1521 1522 1523 1524 1524 1524 1524 1523 1522 1522 1521 1520 1520 1519 1519 1518 1518 1518 1517 1516 1515 1515 1513 1513 1512 1511 1511 1510
1481 1484 1488 1491 1494 1496 1498 1501 1503 1506 1507 1509 1511 1513 1514 1516 1517 1518 1519 1519 1519 1519 1518 1518 1517 1517 1517 1516 1516 1515 1515 1514 1513 1513 1512 1511 1511 1510 1509 1508 1507 1507 1506
1477 1480 1483 1486 1489 1491 1493 1495 1497 1500 1501 1503 1505 1507 1509 1510 1511 1512 1513 1514 1515 1514 1514 1514 1513 1513 1513 1512 1512 1511 1511 1510 1510 1509 1509 1508 1507 1506 1505 1504 1504 1503 1502
1473 1476 1478 1480 1483 1485 1487 1489 1491 1493 1495 1497 1499 1501 1503 1504 1505 1506 1508 1508 1508 1509 1509 1509 1509 1509 1509 1509 1508 1508 1507 1507 1506 1505 1505 1504 1504 1503 1502 1501 1500 1499 1499
1469 1471 1473 1476 1478 1479 1481 1484 1486 1488 1489 1492 1494 1496 1498 1498 1499 1500 1502 1503 1503 1504 1504 1505 1504 1504 1504 1504 1504 1504 1503 1503 1503 1502 1502 1501 1500 1500 1499 1497 1497 1496 1495
1465 1467 1469 1471 1473 1474 1476 1478 1480 1483 1485 1486 1488 1490 1491 1492 1493 1494 1495 1496 1497 1498 1499 1499 1499 1500 1500 1500 1500 1500 1499 1499 1499 1499 1499 1498 1497 1496 1496 1495 1494 1493 1493
1462 1463 1465 1467 1468 1469 1471 1473 1475 1477 1479 1481 1483 1484 1485 1487 1487 1489 1489 1490 1491 1492 1493 1493 1494 1495 1495 1495 1495 1495 1496 1496 1496 1496 1496 1495 1494 1494 1493 1492 1491 1491 1490
1459 1460 1461 1463 1464 1466 1467 1469 1470 1472 1474 1476 1477 1479 1480 1481 1482 1483 1484 1485 1485 1486 1487 1488 1489 1489 1490 1490 1490 1491 1491 1492 1492 1492 1492 1492 1491 1490 1490 1489 1489 1488 1488
1456 1457 1458 1459 1460 1461 1463 1464 1466 1467 1469 1470 1472 1473 1475 1476 1477 1477 1478 1479 1480 1480 1481 1482 1483 1484 1484 1485 1486 1486 1487 1487 1487 1488 1488 1488 1488 1487 1487 1487 1486 1486 1485
1453 1453 1454 1455 1456 1457 1459 1460 1461 1462 1464 1465 1466 1467 1469 1470 1471 1472 1472 1473 1474 1475 1476 1476 1477 1478 1479 1481 1481 1482 1482 1483 1483 1484 1484 1484 1484 1484 1484 1484 1484 1484 1483
1449 1449 1450 1451 1452 1453 1454 1455 1456 1457 1458 1459 1460 1462 1463 1464 1465 1466 1467 1467 1469 1470 1471 1472 1472 1473 1475 1476 1477 1478 1478 1479 1479 1480 1480 1480 1481 1481 1481 1481 1481 1481 1482
1445 1445 1446 1446 1447 1448 1449 1450 1451 1452 1452 1453 1454 1456 1457 1458 1459 1460 1461 1462 1463 1464 1465 1466 1467 1468 1470 1471 1472 1473 1474 1475 1475 1476 1477 1477 1477 1478 1479 1479 1479 1479 1480
1441 1441 1441 1441 1442 1443 1444 1444 1445 1445 1446 1447 1448 1450 1451 1452 1453 1455 1455 1456 1457 1459 1460 1461 1462 1463 1465 1466 1468 1469 1470 1470 1471 1472 1473 1474 1474 1475 1476 1476 1477 1477 1478
1437 1437 1436 1437 1437 1437 1438 1438 1439 1439 1440 1441 1442 1443 1444 1446 1447 1448 1449 1450 1452 1454 1455 1456 1457 1458 1460 1461 1462 1464 1465 1466 1466 1468 1469 1470 1471 1472 1473 1473 1474 1475 1476